Location: Adrasan
(36.3319°N, 30.4314°E)
Time: 13:02:49
(UTC+00:00)

Cosmos 1766 Rocket - Pass Details

Date: 09 December 2023
Orbit: 603 x 628 km, 82.5° (Epoch: 21 February)

Event Time Altitude Azimuth Distance (km) Brightness Sun altitude
Rises 15:52:40 0° 357° (N) 2,873 6.8 -13.7°
Reaches altitude 10° 15:54:56 10° 1° (N) 1,962 5.9 -14.1°
Maximum altitude 15:59:13 60° 81° (E) 696 3.5 -14.9°
Drops below altitude 10° 16:03:27 10° 162° (SSE) 1,941 6.1 -15.8°
Sets 16:05:40 0° 166° (SSE) 2,840 7.0 -16.2°
